#timestamp,LO_Frequency,Hit,StdDev 
1457564415.4,286046997.1,N
1457564435.2,286046999.1,N
1457564455.1,286046999.1,N
1457564456.0,286046999.1,N
1457564475.8,286046999.0,N
1457564495.6,286046999.7,N
1457564515.5,286046999.2,N
1457564535.3,286046997.1,N
1457564555.1,286046994.0,N
1457564575.9,286046991.4,Y
1457564595.7,286046987.8,P
1457564615.5,286046987.1,N
1457564635.4,286046985.9,N
1457564655.2,286046987.4,N
1457564675.0,286046986.1,N
1457564675.9,286046986.1,N
1457564695.8,286046988.0,N
1457564715.6,286046983.0,Y
1457564735.4,286046992.8,P
1457564755.3,286046990.2,P
1457564775.1,286046990.1,P
1457564776.0,286046990.1,Y
1457564795.8,286047001.4,P
1457564815.7,286047004.3,N
1457564835.5,286047007.5,N
1457564855.3,286047004.2,N
1457564875.2,286047001.6,N
1457564895.9,286047001.9,N
1457564915.7,286047000.2,N
1457564935.5,286047000.9,N
1457564955.4,286047000.8,N
1457564975.2,286047000.6,N
1457564995.0,286047004.3,N
1457564995.9,286047004.3,N
1457565015.8,286047004.4,N
1457565035.6,286047000.1,N
1457565055.4,286047000.3,N
1457565075.3,286046999.7,N
1457565095.1,286047000.8,N
1457565096.0,286047000.8,N
1457565115.8,286046999.2,N
1457565135.7,286046998.7,N
1457565155.5,286046998.2,N
1457565175.3,286046999.1,N
1457565195.2,286046995.8,N
1457565215.9,286046997.8,N
1457565235.7,286046993.5,N
1457565255.5,286046996.2,N
1457565275.4,286046993.4,N
1457565295.2,286046997.2,N
1457565315.0,286046999.2,N
1457565315.9,286046999.2,N
1457565335.8,286046997.7,N
1457565355.6,286046999.6,N
1457565375.4,286046998.0,N
1457565395.3,286046997.3,N
1457565415.1,286046996.4,N
1457565416.0,286046996.4,N
1457565435.8,286046994.8,N
1457565455.7,286046993.0,N
1457565475.5,286046990.8,Y
1457565495.3,286046994.8,P
1457565515.2,286046993.2,P
1457565535.9,286046989.6,P
1457565555.7,286046991.2,N
1457565575.6,286046991.8,N
1457565595.4,286046995.4,N
1457565615.2,286046994.2,N
1457565635.1,286046996.2,N
1457565636.0,286046996.2,N
1457565655.8,286046999.4,N
1457565675.6,286046995.7,N
1457565695.4,286046993.6,N
1457565715.3,286046992.6,N
1457565735.1,286046988.6,Y
1457565755.9,286046991.8,P
1457565775.7,286046992.2,P
1457565795.5,286046991.9,P
1457565815.4,286046996.4,Y
1457565835.2,286047000.7,P
1457565855.0,286046998.7,N
1457565855.9,286046998.7,N
1457565875.7,286047003.2,N
1457565895.6,286047007.0,N
1457565915.4,286047007.2,N
1457565935.2,286047004.9,N
1457565955.1,286047005.6,N
1457565956.0,286047005.6,N
1457565975.8,286047004.2,N
1457565995.6,286047002.8,N
1457566015.5,286047003.2,N
1457566035.3,286047007.6,N
1457566055.1,286047007.0,N
1457566075.9,286047006.9,N
1457566095.7,286047007.6,N
1457566115.5,286047004.5,N
1457566135.4,286047010.1,N
1457566155.2,286047010.5,N
1457566175.0,286047010.7,N
1457566175.9,286047010.7,N
1457566195.8,286047009.2,N
1457566215.6,286047009.2,N
1457566235.4,286047008.6,N
1457566255.2,286047008.1,N
1457566275.1,286047008.6,N
1457566276.0,286047008.6,N
1457566295.8,286047008.0,N
1457566315.6,286047006.6,N
1457566335.5,286047006.7,N
1457566355.3,286047005.1,N
1457566375.1,286047003.8,N
1457566395.9,286047007.4,N
1457566415.7,286047007.6,Y
1457566435.5,286046999.1,P
1457566455.4,286046998.8,N
1457566475.2,286046996.7,N
1457566495.0,286047000.8,N
1457566495.9,286047000.8,N
1457566515.8,286046999.4,N
1457566535.6,286046998.4,N
1457566555.4,286047002.7,N
1457566575.3,286047002.2,N
1457566595.1,286046999.9,N
1457566596.0,286046999.9,N
1457566615.8,286047001.4,N
1457566635.8,286047003.9,N
1457566655.7,286047005.8,N
1457566675.5,286047005.0,N
1457566695.3,286047005.1,N
1457566715.2,286047008.6,Y
1457566735.0,286047008.6,P
1457566735.9,286047008.6,N
1457566755.7,286047009.7,N
1457566775.6,286047013.5,Y
1457566795.4,286047012.0,P
1457566815.2,286047009.5,P
1457566835.1,286047013.5,P
1457566836.0,286047013.5,Y
1457566855.8,286047002.2,P
1457566875.6,286047002.3,N
1457566895.5,286047001.5,N
1457566915.3,286047000.3,N
1457566935.1,286046999.7,N
1457566955.9,286047001.7,N
1457566975.7,286047002.5,N
1457566995.5,286047004.8,N
1457567015.4,286047005.7,N
1457567035.2,286047004.7,N
1457567055.0,286047006.1,N
1457567055.9,286047006.1,N
1457567075.8,286047008.0,N
1457567095.6,286047009.8,Y
1457567115.4,286047007.3,P
1457567135.3,286047005.8,P
1457567155.1,286047004.0,N
1457567156.0,286047004.0,N
1457567175.8,286047005.8,Y
1457567195.7,286047001.5,P
1457567215.5,286047002.2,N
1457567235.3,286047000.4,N
1457567255.2,286046996.6,N
1457567275.9,286046997.7,N
1457567295.7,286046997.4,N
1457567315.6,286046996.0,N
1457567335.4,286046995.9,N
1457567355.2,286046992.1,N
1457567375.0,286046993.8,N
1457567375.9,286046993.8,N
1457567395.8,286046995.1,N
1457567415.6,286046996.6,N
1457567435.4,286046996.9,N
1457567455.3,286046997.9,N
1457567475.1,286046997.8,N
1457567476.0,286046997.8,N
1457567495.8,286046997.3,N
1457567515.7,286046994.9,N
1457567535.5,286046997.5,N
1457567555.3,286046999.1,N
1457567575.2,286046996.5,N
1457567595.9,286046998.4,N
1457567615.7,286046999.5,N
1457567635.6,286046998.9,N
1457567655.4,286046996.8,N
1457567675.2,286046994.9,N
1457567695.0,286046997.3,N
1457567696.0,286046997.3,N
1457567715.8,286046993.5,N
1457567735.6,286046993.4,N
1457567755.5,286046993.3,Y
1457567775.3,286047002.3,P
1457567795.1,286046998.6,N
1457567815.8,286046998.4,N
1457567835.7,286046996.8,N
1457567855.5,286046999.1,N
1457567875.3,286047000.9,N
1457567895.2,286047000.2,N
1457567915.9,286046999.2,N
1457567935.7,286046991.9,Y
1457567955.6,286046994.6,P
1457567975.4,286046994.4,N
1457567995.2,286046994.2,N
